FW7875 Weather Reports


Display with metric or nautical units.
time (UTC)temp
F
wind
direction
speed
MPH
gust
MPH
rain 1hr
in
rain 24hr
in
rain mn
in
humidity
%
barometer
mb
20260906025022 69 207 2.0 8.0 0.00 0.00 0.00 28 1023.3
20260906024548 70 181 3.0 6.0 0.00 0.00 0.00 28 1023.3
20260906024018 70 212 4.0 6.0 0.00 0.00 0.00 28 1023.2
20260906023520 70 232 3.0 6.0 0.00 0.00 0.00 28 1023.1
20260906023038 70 228 3.0 6.0 0.00 0.00 0.00 28 1022.9
20260906022517 70 224 4.0 6.0 0.00 0.00 0.00 28 1023.0
20260906022020 70 232 4.0 6.0 0.00 0.00 0.00 28 1022.9
20260906021538 70 247 4.0 6.0 0.00 0.00 0.00 28 1022.8
20260906021020 71 250 4.0 8.0 0.00 0.00 0.00 28 1022.9
20260906020520 71 253 4.0 8.0 0.00 0.00 0.00 27 1022.8
20260906020039 71 260 4.0 8.0 0.00 0.00 0.00 28 1022.8
20260906015520 71 252 4.0 8.0 0.00 0.00 0.00 27 1022.6
20260906015019 72 223 4.0 8.0 0.00 0.00 0.00 27 1022.5
20260906014611 72 253 3.0 8.0 0.00 0.00 0.00 27 1022.6
20260906014017 73 256 4.0 11.0 0.00 0.00 0.00 26 1022.5
20260906013517 74 277 6.0 11.0 0.00 0.00 0.00 26 1022.6
20260906013047 75 274 6.0 12.0 0.00 0.00 0.00 25 1022.5
20260906012522 76 268 7.0 12.0 0.00 0.00 0.00 25 1022.5
20260906012020 76 281 8.0 12.0 0.00 0.00 0.00 25 1022.5
20260906011540 76 274 8.0 12.0 0.00 0.00 0.00 25 1022.4
20260906011018 77 259 7.0 13.0 0.00 0.00 0.00 25 1022.4
20260906010518 77 262 8.0 13.0 0.00 0.00 0.00 24 1022.5
20260906010046 78 243 7.0 14.0 0.00 0.00 0.00 25 1022.3
20260906005517 78 284 7.0 14.0 0.00 0.00 0.00 25 1022.5
20260906005023 78 262 7.0 14.0 0.00 0.00 0.00 25 1022.5
20260906004538 78 258 9.0 14.0 0.00 0.00 0.00 25 1022.4
20260906004024 79 281 8.0 13.0 0.00 0.00 0.00 24 1022.4
20260906003516 79 261 9.0 12.0 0.00 0.00 0.00 24 1022.4
20260906003037 79 286 7.0 12.0 0.00 0.00 0.00 25 1022.4
20260906002519 79 280 8.0 13.0 0.00 0.00 0.00 25 1022.3
20260906002020 79 288 8.0 13.0 0.00 0.00 0.00 24 1022.3
20260906001541 79 261 10.0 13.0 0.00 0.00 0.00 24 1022.2
20260906001017 80 252 8.0 13.0 0.00 0.00 0.00 24 1022.1
20260906000517 80 288 7.0 15.0 0.00 0.00 0.00 23 1022.3
20260906000042 80 262 9.0 15.0 0.00 0.00 0.00 22 1022.3
20260905235520 80 258 12.0 15.0 0.00 0.00 0.00 23 1022.2
20260905235017 81 260 9.0 15.0 0.00 0.00 0.00 23 1022.2
20260905234538 81 276 9.0 16.0 0.00 0.00 0.00 24 1022.3
20260905234018 81 283 11.0 18.0 0.00 0.00 0.00 24 1022.3
20260905233523 81 288 9.0 18.0 0.00 0.00 0.00 24 1022.2
20260905233035 80 263 13.0 19.0 0.00 0.00 0.00 24 1022.1
20260905232518 80 257 11.0 19.0 0.00 0.00 0.00 25 1022.2
20260905232020 81 274 9.0 20.0 0.00 0.00 0.00 24 1022.2
20260905231541 81 270 10.0 26.0 0.00 0.00 0.00 25 1022.2
20260905231019 81 279 10.0 26.0 0.00 0.00 0.00 24 1022.3
20260905230517 81 305 7.0 18.0 0.00 0.00 0.00 25 1022.2
20260905230042 81 265 9.0 21.0 0.00 0.00 0.00 24 1022.1
20260905225517 81 252 10.0 21.0 0.00 0.00 0.00 26 1022.1
20260905225017 81 266 11.0 20.0 0.00 0.00 0.00 25 1022.1
20260905224535 82 256 14.0 20.0 0.00 0.00 0.00 25 1022.2
20260905224018 82 245 11.0 18.0 0.00 0.00 0.00 26 1022.1
20260905223519 81 254 12.0 19.0 0.00 0.00 0.00 27 1022.0
20260905223037 81 285 10.0 19.0 0.00 0.00 0.00 27 1022.1
20260905222519 81 264 12.0 23.0 0.00 0.00 0.00 27 1022.0
20260905222018 81 265 14.0 23.0 0.00 0.00 0.00 27 1022.1
20260905221603 82 236 10.0 17.0 0.00 0.00 0.00 27 1022.1
20260905221021 81 260 8.0 16.0 0.00 0.00 0.00 28 1022.1
20260905220519 81 263 8.0 17.0 0.00 0.00 0.00 28 1022.3
20260905220041 81 264 9.0 21.0 0.00 0.00 0.00 29 1022.2
20260905215517 81 261 13.0 21.0 0.00 0.00 0.00 28 1022.4
20260905215015 81 224 10.0 19.0 0.00 0.00 0.00 28 1022.2
20260905214538 81 285 10.0 19.0 0.00 0.00 0.00 28 1022.4
20260905214020 82 253 10.0 19.0 0.00 0.00 0.00 28 1022.4
20260905213519 81 269 9.0 17.0 0.00 0.00 0.00 29 1022.3
20260905213056 81 270 9.0 20.0 0.00 0.00 0.00 29 1022.4
20260905212520 81 264 12.0 20.0 0.00 0.00 0.00 29 1022.5
20260905212018 82 254 13.0 24.0 0.00 0.00 0.00 27 1022.5
20260905211545 82 253 9.0 24.0 0.00 0.00 0.00 26 1022.5
20260905211017 81 257 12.0 24.0 0.00 0.00 0.00 28 1022.5
20260905210517 82 236 14.0 18.0 0.00 0.00 0.00 27 1022.6
20260905210048 81 202 9.0 25.0 0.00 0.00 0.00 28 1022.6
20260905205520 81 286 5.0 25.0 0.00 0.00 0.00 29 1022.7
20260905205019 81 221 12.0 25.0 0.00 0.00 0.00 30 1022.7
20260905204545 81 274 8.0 17.0 0.00 0.00 0.00 30 1022.7
20260905204019 81 283 7.0 20.0 0.00 0.00 0.00 30 1022.8
20260905203519 81 269 14.0 20.0 0.00 0.00 0.00 30 1023.0
20260905203040 81 264 12.0 21.0 0.00 0.00 0.00 31 1023.1
20260905202518 81 233 13.0 21.0 0.00 0.00 0.00 31 1023.2
20260905202020 81 248 14.0 21.0 0.00 0.00 0.00 30 1023.1
20260905201541 81 253 14.0 21.0 0.00 0.00 0.00 30 1023.3
20260905201018 80 230 5.0 19.0 0.00 0.00 0.00 31 1023.2
20260905200520 80 240 6.0 19.0 0.00 0.00 0.00 31 1023.4
20260905200042 80 233 11.0 19.0 0.00 0.00 0.00 32 1023.5
20260905195517 80 283 8.0 15.0 0.00 0.00 0.00 33 1023.5
20260905195019 80 261 8.0 18.0 0.00 0.00 0.00 32 1023.7
20260905194541 79 204 11.0 19.0 0.00 0.00 0.00 33 1023.8
20260905194016 79 240 10.0 19.0 0.00 0.00 0.00 34 1023.7
20260905193516 79 207 7.0 16.0 0.00 0.00 0.00 33 1023.9
20260905193040 79 247 9.0 17.0 0.00 0.00 0.00 34 1024.0
20260905192521 78 274 9.0 17.0 0.00 0.00 0.00 35 1024.1
20260905192022 78 243 4.0 13.0 0.00 0.00 0.00 35 1024.1
20260905191538 77 257 7.0 15.0 0.00 0.00 0.00 35 1024.1
20260905191018 76 226 10.0 15.0 0.00 0.00 0.00 36 1024.2
20260905190520 77 253 6.0 17.0 0.00 0.00 0.00 36 1024.3
20260905190038 77 271 7.0 17.0 0.00 0.00 0.00 35 1024.4
20260905185517 77 322 9.0 17.0 0.00 0.00 0.00 36 1024.5
20260905185018 77 270 8.0 17.0 0.00 0.00 0.00 36 1024.5
20260905184544 76 266 7.0 11.0 0.00 0.00 0.00 36 1024.5
20260905184020 76 302 6.0 12.0 0.00 0.00 0.00 36 1024.5
20260905183526 76 316 6.0 15.0 0.00 0.00 0.00 36 1024.8
20260905183040 75 257 11.0 15.0 0.00 0.00 0.00 37 1024.8
20260905182527 75 243 5.0 12.0 0.00 0.00 0.00 38 1024.8
20260905182021 75 256 7.0 12.0 0.00 0.00 0.00 38 1024.8
20260905181548 74 317 4.0 11.0 0.00 0.00 0.00 38 1024.7
20260905181020 74 312 7.0 12.0 0.00 0.00 0.00 37 1024.9
20260905180520 75 303 6.0 12.0 0.00 0.00 0.00 37 1025.0
20260905180041 75 242 7.0 10.0 0.00 0.00 0.00 37 1024.9
20260905175517 75 283 6.0 13.0 0.00 0.00 0.00 37 1025.0
20260905175019 75 256 6.0 13.0 0.00 0.00 0.00 37 1024.8
20260905174539 75 281 3.0 10.0 0.00 0.00 0.00 37 1024.9
20260905174019 74 238 5.0 13.0 0.00 0.00 0.00 37 1025.0
20260905173518 74 248 6.0 14.0 0.00 0.00 0.00 36 1024.9
20260905173035 75 225 9.0 14.0 0.00 0.00 0.00 36 1024.8
20260905172520 74 281 5.0 11.0 0.00 0.00 0.00 37 1024.8
20260905172022 74 235 5.0 10.0 0.00 0.00 0.00 37 1024.8
20260905171541 74 276 6.0 11.0 0.00 0.00 0.00 37 1024.8
20260905171017 73 303 6.0 11.0 0.00 0.00 0.00 37 1024.8
20260905170520 74 247 8.0 14.0 0.00 0.00 0.00 36 1025.0
20260905170039 74 259 3.0 14.0 0.00 0.00 0.00 36 1024.9
20260905165516 76 269 9.0 14.0 0.00 0.00 0.00 35 1024.9
20260905165020 75 250 10.0 13.0 0.00 0.00 0.00 36 1024.8
20260905164536 74 312 7.0 11.0 0.00 0.00 0.00 37 1024.9
20260905164020 74 277 4.0 11.0 0.00 0.00 0.00 37 1025.0
20260905163520 74 278 6.0 11.0 0.00 0.00 0.00 37 1024.9
20260905163042 73 248 6.0 11.0 0.00 0.00 0.00 38 1025.0
20260905162520 74 300 4.0 10.0 0.00 0.00 0.00 38 1025.0
20260905162019 74 259 5.0 10.0 0.00 0.00 0.00 40 1025.0
20260905161555 73 307 2.0 10.0 0.00 0.00 0.00 39 1025.0
20260905161019 73 298 4.0 11.0 0.00 0.00 0.00 39 1025.0
20260905160519 73 311 7.0 11.0 0.00 0.00 0.00 39 1025.0
20260905160043 73 300 5.0 8.0 0.00 0.00 0.00 40 1024.9
20260905155516 73 244 4.0 8.0 0.00 0.00 0.00 39 1024.9
20260905155016 73 296 3.0 8.0 0.00 0.00 0.00 39 1024.9
20260905154541 73 0 0.0 5.0 0.00 0.00 0.00 40 1025.0
20260905154021 73 321 2.0 5.0 0.00 0.00 0.00 40 1025.0
20260905153518 73 309 2.0 4.0 0.00 0.00 0.00 40 1025.0
20260905153039 73 0 0.0 2.0 0.00 0.00 0.00 40 1025.0
20260905152519 72 136 0.0 4.0 0.00 0.00 0.00 41 1024.9
20260905152017 71 139 1.0 4.0 0.00 0.00 0.00 42 1025.0
20260905151538 70 0 2.0 4.0 0.00 0.00 0.00 43 1025.0
20260905151023 70 0 2.0 5.0 0.00 0.00 0.00 44 1025.0
20260905150522 69 82 2.0 6.0 0.00 0.00 0.00 45 1024.9
20260905150038 69 100 3.0 6.0 0.00 0.00 0.00 45 1025.0
20260905145518 68 79 2.0 7.0 0.00 0.00 0.00 45 1024.9
20260905145018 68 140 3.0 7.0 0.00 0.00 0.00 46 1025.0
20260905144539 67 73 5.0 7.0 0.00 0.00 0.00 47 1025.0
20260905144017 66 94 5.0 7.0 0.00 0.00 0.00 48 1024.9
20260905143524 66 65 5.0 9.0 0.00 0.00 0.00 49 1025.0
20260905143040 65 77 4.0 9.0 0.00 0.00 0.00 50 1025.0
20260905142518 65 103 6.0 8.0 0.00 0.00 0.00 51 1024.8
20260905142020 64 68 4.0 7.0 0.00 0.00 0.00 52 1024.9
20260905141538 63 60 5.0 8.0 0.00 0.00 0.00 53 1024.8
20260905141020 63 81 5.0 8.0 0.00 0.00 0.00 53 1024.9
20260905140520 63 103 5.0 7.0 0.00 0.00 0.00 52 1024.8
20260905140041 63 88 4.0 6.0 0.00 0.00 0.00 54 1024.7
20260905135520 62 80 4.0 6.0 0.00 0.00 0.00 54 1024.7
20260905135019 62 91 3.0 6.0 0.00 0.00 0.00 54 1024.7
20260905134539 61 86 4.0 6.0 0.00 0.00 0.00 56 1024.5
20260905134021 60 80 4.0 6.0 0.00 0.00 0.00 57 1024.4
20260905133517 59 91 3.0 8.0 0.00 0.00 0.00 57 1024.5
20260905133035 59 98 5.0 8.0 0.00 0.00 0.00 57 1024.4
20260905132518 59 86 7.0 8.0 0.00 0.00 0.00 57 1024.3
20260905132020 59 72 6.0 8.0 0.00 0.00 0.00 57 1024.3
20260905131536 59 68 4.0 6.0 0.00 0.00 0.00 57 1024.3
20260905131020 59 64 2.0 7.0 0.00 0.00 0.00 57 1024.3
20260905130524 59 79 3.0 7.0 0.00 0.00 0.00 57 1024.3
20260905130037 58 70 5.0 7.0 0.00 0.00 0.00 58 1024.1
20260905125517 58 76 4.0 6.0 0.00 0.00 0.00 58 1023.8
20260905125017 58 75 4.0 6.0 0.00 0.00 0.00 57 1023.8
20260905124539 58 100 2.0 6.0 0.00 0.00 0.00 56 1023.7
20260905124019 59 120 3.0 7.0 0.00 0.00 0.00 56 1023.7
20260905123516 59 120 5.0 7.0 0.00 0.00 0.00 55 1023.5
20260905123040 59 120 5.0 8.0 0.00 0.00 0.00 55 1023.6
20260905122523 59 111 4.0 10.0 0.00 0.00 0.00 55 1023.6
20260905122019 59 131 6.0 10.0 0.00 0.00 0.00 54 1023.6
20260905121537 59 127 5.0 9.0 0.00 0.00 0.00 55 1023.5
20260905121020 59 103 5.0 8.0 0.00 0.00 0.00 55 1023.6
20260905120519 59 97 6.0 9.0 0.00 0.00 0.00 55 1023.6
20260905120038 59 115 5.0 9.0 0.00 0.00 0.00 54 1023.5
20260905115521 59 110 4.0 8.0 0.00 0.00 0.00 54 1023.6
20260905115018 59 123 6.0 8.0 0.00 0.00 0.00 54 1023.6
20260905114540 59 122 5.0 8.0 0.00 0.00 0.00 54 1023.6
20260905114020 59 127 3.0 7.0 0.00 0.00 0.00 54 1023.6
20260905113520 59 115 4.0 7.0 0.00 0.00 0.00 55 1023.7
20260905113038 59 111 3.0 6.0 0.00 0.00 0.00 54 1023.7
20260905112521 58 115 3.0 6.0 0.00 0.00 0.00 56 1023.7
20260905112023 58 87 2.0 5.0 0.00 0.00 0.00 56 1023.8
20260905111543 58 95 3.0 5.0 0.00 0.00 0.00 56 1023.8
20260905111018 59 89 4.0 5.0 0.00 0.00 0.00 55 1023.7
20260905110520 58 106 3.0 5.0 0.00 0.00 0.00 56 1023.7
20260905110037 58 117 3.0 6.0 0.00 0.00 0.00 56 1023.7
20260905105523 58 104 3.0 7.0 0.00 0.00 0.00 56 1023.6
20260905105023 58 103 5.0 8.0 0.00 0.00 0.00 56 1023.6
20260905104540 59 104 5.0 8.0 0.00 0.00 0.00 55 1023.5
20260905104019 59 89 6.0 7.0 0.00 0.00 0.00 54 1023.5
20260905103518 59 90 4.0 7.0 0.00 0.00 0.00 53 1023.4
20260905103038 59 100 4.0 6.0 0.00 0.00 0.00 53 1023.6
20260905102519 59 115 3.0 6.0 0.00 0.00 0.00 54 1023.4
20260905102017 59 108 4.0 6.0 0.00 0.00 0.00 53 1023.4
20260905101540 60 97 4.0 7.0 0.00 0.00 0.00 53 1023.5
20260905101021 59 85 5.0 7.0 0.00 0.00 0.00 54 1023.4
20260905100518 59 97 5.0 7.0 0.00 0.00 0.00 54 1023.2
20260905100039 59 105 3.0 6.0 0.00 0.00 0.00 55 1023.2
20260905095518 59 89 4.0 6.0 0.00 0.00 0.00 54 1023.2
20260905095023 59 119 4.0 6.0 0.00 0.00 0.00 53 1023.2
20260905094537 59 113 4.0 8.0 0.00 0.00 0.00 53 1023.2
20260905094021 60 101 6.0 8.0 0.00 0.00 0.00 52 1023.1
20260905093521 59 120 5.0 8.0 0.00 0.00 0.00 52 1023.1
20260905093036 59 111 3.0 7.0 0.00 0.00 0.00 53 1023.1
20260905092519 58 110 3.0 6.0 0.00 0.00 0.00 55 1023.2
20260905092019 58 122 3.0 7.0 0.00 0.00 0.00 55 1023.2
20260905091551 58 86 4.0 7.0 0.00 0.00 0.00 55 1023.1
20260905091017 58 113 3.0 6.0 0.00 0.00 0.00 55 1023.2
20260905090518 58 95 3.0 5.0 0.00 0.00 0.00 56 1023.1
20260905090038 58 99 3.0 5.0 0.00 0.00 0.00 56 1023.2
20260905085518 58 96 2.0 6.0 0.00 0.00 0.00 56 1023.1
20260905085021 59 103 4.0 8.0 0.00 0.00 0.00 55 1023.2
20260905084554 58 129 4.0 8.0 0.00 0.00 0.00 56 1023.2
20260905084020 57 108 3.0 8.0 0.00 0.00 0.00 57 1023.0
20260905083520 58 105 4.0 8.0 0.00 0.00 0.00 57 1023.0
20260905083035 58 110 5.0 9.0 0.00 0.00 0.00 57 1023.0
20260905082517 58 123 6.0 9.0 0.00 0.00 0.00 57 1022.9
20260905082020 58 97 8.0 9.0 0.00 0.00 0.00 57 1023.0
20260905081539 58 133 6.0 8.0 0.00 0.00 0.00 57 1022.9
20260905081019 57 127 5.0 8.0 0.00 0.00 0.00 58 1023.0
20260905080516 57 103 5.0 8.0 0.00 0.00 0.00 59 1022.9
20260905080041 57 83 6.0 9.0 0.00 0.00 0.00 59 1023.0
20260905075518 57 102 6.0 9.0 0.00 0.00 0.00 59 1022.8
20260905075020 57 98 6.0 9.0 0.00 0.00 0.00 60 1022.8
20260905074537 57 110 7.0 9.0 0.00 0.00 0.00 60 1022.9
20260905074021 57 117 6.0 10.0 0.00 0.00 0.00 61 1022.8
20260905073518 57 94 6.0 10.0 0.00 0.00 0.00 61 1022.8
20260905073040 57 83 7.0 10.0 0.00 0.00 0.00 61 1022.8
20260905072520 57 99 7.0 10.0 0.00 0.00 0.00 61 1022.7
20260905072017 57 117 5.0 9.0 0.00 0.00 0.00 61 1022.7
20260905071543 57 102 6.0 10.0 0.00 0.00 0.00 61 1022.7
20260905071018 57 91 6.0 10.0 0.00 0.00 0.00 61 1022.8
20260905070516 57 99 7.0 10.0 0.00 0.00 0.00 62 1022.7
20260905065519 57 101 6.0 8.0 0.00 0.00 0.00 62 1022.7
20260905065023 57 91 6.0 8.0 0.00 0.00 0.00 62 1022.7
20260905064537 57 86 6.0 8.0 0.00 0.00 0.00 61 1022.6
20260905064020 58 103 4.0 9.0 0.00 0.00 0.00 61 1022.6
20260905063517 58 102 7.0 9.0 0.00 0.00 0.00 61 1022.6
20260905063039 58 109 7.0 9.0 0.00 0.00 0.00 61 1022.6
20260905062523 57 98 5.0 8.0 0.00 0.00 0.00 61 1022.6
20260905062021 58 105 4.0 8.0 0.00 0.00 0.00 61 1022.6
20260905061535 58 105 5.0 8.0 0.00 0.00 0.00 61 1022.6
20260905061017 58 101 6.0 8.0 0.00 0.00 0.00 61 1022.7
20260905060519 58 101 6.0 7.0 0.00 0.00 0.00 62 1022.6
20260905060037 58 93 5.0 7.0 0.00 0.00 0.00 61 1022.7
20260905055517 58 107 4.0 6.0 0.00 0.00 0.00 60 1022.8
20260905055020 58 91 4.0 6.0 0.00 0.00 0.00 60 1022.8
20260905054549 58 86 3.0 7.0 0.00 0.00 0.00 60 1022.9
20260905054017 58 91 2.0 7.0 0.00 0.00 0.00 60 1022.9
20260905053520 58 95 4.0 7.0 0.00 0.00 0.00 60 1022.8
20260905053042 58 100 3.0 5.0 0.00 0.00 0.00 60 1022.8
20260905052517 58 89 4.0 5.0 0.00 0.00 0.00 60 1022.8
20260905052021 58 93 4.0 6.0 0.00 0.00 0.00 60 1022.8
20260905051542 58 105 4.0 6.0 0.00 0.00 0.00 60 1022.9
20260905051017 58 95 4.0 6.0 0.00 0.00 0.00 61 1022.8
20260905050520 58 92 4.0 6.0 0.00 0.00 0.00 61 1022.8
20260905050044 58 103 3.0 5.0 0.00 0.00 0.00 62 1022.9
20260905045515 57 117 3.0 4.0 0.00 0.00 0.00 63 1022.9
20260905045018 57 98 3.0 5.0 0.00 0.00 0.00 64 1022.8
20260905044540 57 94 4.0 5.0 0.00 0.00 0.00 62 1023.0
20260905044017 58 91 3.0 5.0 0.00 0.00 0.00 61 1022.9
20260905043520 58 101 3.0 4.0 0.00 0.00 0.00 61 1022.9
20260905043038 59 96 2.0 4.0 0.00 0.00 0.00 61 1022.9
20260905042519 58 107 2.0 5.0 0.00 0.00 0.00 61 1023.0
20260905042020 58 97 2.0 5.0 0.00 0.00 0.00 62 1023.0
20260905041543 58 91 4.0 5.0 0.00 0.00 0.00 62 1023.0
20260905041018 58 96 3.0 5.0 0.00 0.00 0.00 62 1023.1
20260905040517 59 103 4.0 5.0 0.00 0.00 0.00 61 1023.0
20260905040040 59 110 3.0 7.0 0.00 0.00 0.00 61 1023.0
20260905035518 59 107 4.0 7.0 0.00 0.00 0.00 60 1023.0
20260905035019 59 107 4.0 6.0 0.00 0.00 0.00 60 1022.9
20260905034540 60 96 4.0 5.0 0.00 0.00 0.00 59 1023.0
20260905034018 61 93 3.0 6.0 0.00 0.00 0.00 57 1022.7
20260905033517 62 93 4.0 7.0 0.00 0.00 0.00 55 1022.7
20260905033048 62 107 5.0 8.0 0.00 0.00 0.00 55 1022.7
20260905032520 61 104 4.0 8.0 0.00 0.00 0.00 55 1022.5
20260905032020 62 128 5.0 8.0 0.00 0.00 0.00 54 1022.5
20260905031546 62 93 1.0 4.0 0.00 0.00 0.00 52 1022.4
20260905031019 63 87 2.0 5.0 0.00 0.00 0.00 51 1022.3
20260905030518 64 105 3.0 6.0 0.00 0.00 0.00 50 1022.4
20260905030046 65 81 4.0 6.0 0.00 0.00 0.00 48 1022.2
20260905025517 66 91 3.0 4.0 0.00 0.00 0.00 45 1022.1